Terminal Aerodrome Forecast
Issued by NWS Cleveland, OH

Home | Current Version | Previous Version | Text Only | Print | Product List | Glossary On
Versions: 1 2 3 4 5 6 7 8 9 10 11 12 13 14 15 16 17 18 19 20 21 22 23 24 25 26 27 28
000
FTUS41 KCLE 021727
TAFCLE
TAF
KCLE 021727Z 0218/0324 23010G18KT P6SM FEW060
     FM030400 21014G22KT P6SM VCTS BKN040CB OVC080
      TEMPO 0305/0308 5SM -TSRA BR BKN040CB OVC080
     FM030900 21012KT P6SM VCSH BKN040
     FM031200 21010G20KT P6SM BKN040
     FM031900 27010KT P6SM BKN040=

USA.gov is the U.S. government's official web portal to all federal, state and local government web resources and services.